This is the latest recevied weather packets stored in our database for station/object KC1BRV. If no packets are shown the sender has not sent any weather packets the latest 10 day(s).
| Time | Temp. | Humidity | Pressure | Rain* | Wind** | Luminosity | Snow |
|---|---|---|---|---|---|---|---|
| 1777757134 | 11.11° C | 83% | 1011.1 hPa | 0 mm | - | 49 W/m² | - |
| 1777756831 | 11.11° C | 84% | 1011 hPa | 0 mm | - | 47 W/m² | - |
| 1777756527 | 11.11° C | 84% | 1011.3 hPa | 0 mm | - | 48 W/m² | - |
| 1777756224 | 10.56° C | 84% | 1011.1 hPa | 0 mm | - | 80 W/m² | - |
| 1777755921 | 10.56° C | 84% | 1011.1 hPa | 0 mm | - | 81 W/m² | - |
| 1777755618 | 10.56° C | 84% | 1011.1 hPa | 0 mm | - | 59 W/m² | - |
| 1777755314 | 10.56° C | 85% | 1011.2 hPa | 0 mm | - | 60 W/m² | - |
| 1777755012 | 10.56° C | 85% | 1011.1 hPa | 0 mm | - | 73 W/m² | - |
| 1777754708 | 10.56° C | 84% | 1011.1 hPa | 0 mm | - | 64 W/m² | - |
| 1777754407 | 10.56° C | 83% | 1011 hPa | 0 mm | - | 69 W/m² | - |
| 1777754103 | 11.11° C | 84% | 1011.2 hPa | 0 mm | - | 74 W/m² | - |
| 1777753800 | 11.11° C | 84% | 1011.2 hPa | 0 mm | - | 79 W/m² | - |
| 1777753496 | 11.11° C | 84% | 1011.4 hPa | 0 mm | - | 91 W/m² | - |
| 1777753195 | 11.11° C | 85% | 1011.2 hPa | 0 mm | - | 108 W/m² | - |
| 1777752890 | 11.11° C | 83% | 1011.5 hPa | 0 mm | - | 90 W/m² | - |
| 1777752587 | 11.11° C | 85% | 1011.4 hPa | 0 mm | - | 118 W/m² | - |
| 1777752283 | 11.11° C | 84% | 1011.5 hPa | 0 mm | - | 115 W/m² | - |
| 1777751981 | 10.56° C | 85% | 1011.6 hPa | 0 mm | - | 139 W/m² | - |
| 1777751678 | 10.56° C | 85% | 1011.7 hPa | 0 mm | - | 101 W/m² | - |
| 1777751374 | 10.56° C | 85% | 1011.6 hPa | 0 mm | - | 127 W/m² | - |
| 1777751071 | 10.56° C | 86% | 1011.9 hPa | 0 mm | - | 154 W/m² | - |
| 1777750766 | 10.56° C | 86% | 1011.9 hPa | 0 mm | - | 98 W/m² | - |
| 1777750464 | 10.56° C | 87% | 1011.6 hPa | 0 mm | - | 139 W/m² | - |
| 1777750159 | 10.56° C | 88% | 1011.9 hPa | 0 mm | - | 126 W/m² | - |
| 1777749857 | 10.56° C | 88% | 1011.8 hPa | 0 mm | - | 99 W/m² | - |
* Rain latest hour (hover to see other rain measurements)
** Current wind speed in m/s (hover to see current wind gust speed)